Year,Month,Day,Hour,Minute,Value (Times are PST for temperature in C)
2008,07,24,00,00,10.20
2008,07,24,00,01,10.20
2008,07,24,00,02,10.20
2008,07,24,00,03,10.20
2008,07,24,00,04,10.20
2008,07,24,00,05,10.20
2008,07,24,00,06,10.20
2008,07,24,00,07,10.20
2008,07,24,00,08,10.30
2008,07,24,00,09,10.30
2008,07,24,00,10,10.30
2008,07,24,00,11,10.30
2008,07,24,00,12,10.30
2008,07,24,00,13,10.20
2008,07,24,00,14,10.30
2008,07,24,00,15,10.30
2008,07,24,00,16,10.30
2008,07,24,00,17,10.30
2008,07,24,00,18,10.30
2008,07,24,00,19,10.30
2008,07,24,00,20,10.30
2008,07,24,00,21,10.30
2008,07,24,00,22,10.30
2008,07,24,00,23,10.30
2008,07,24,00,24,10.30
2008,07,24,00,25,10.30
2008,07,24,00,26,10.30
2008,07,24,00,27,10.30
2008,07,24,00,28,10.20
2008,07,24,00,29,10.20
2008,07,24,00,30,10.20
2008,07,24,00,31,10.20
2008,07,24,00,32,10.20
2008,07,24,00,33,10.10
2008,07,24,00,34,10.10
2008,07,24,00,35,10.10
2008,07,24,00,36,10.10
2008,07,24,00,37,10.10
2008,07,24,00,38,10.10
2008,07,24,00,39,10.10
2008,07,24,00,40,10.00
2008,07,24,00,41,10.00
2008,07,24,00,42,10.00
2008,07,24,00,43,10.00
2008,07,24,00,44,10.00
2008,07,24,00,45,10.00
2008,07,24,00,46,10.00
2008,07,24,00,47,9.90
2008,07,24,00,48,9.90
2008,07,24,00,49,9.90
2008,07,24,00,50,9.90
2008,07,24,00,51,9.90
2008,07,24,00,52,9.90
2008,07,24,00,53,9.90
2008,07,24,00,54,9.80
2008,07,24,00,55,9.80
2008,07,24,00,56,9.80
2008,07,24,00,57,9.80
2008,07,24,00,58,9.80
2008,07,24,00,59,9.80
2008,07,24,01,00,9.70
2008,07,24,01,01,9.70
2008,07,24,01,02,9.70
2008,07,24,01,03,9.70
2008,07,24,01,04,9.70
2008,07,24,01,05,9.70
2008,07,24,01,06,9.70
2008,07,24,01,07,9.70
2008,07,24,01,08,9.70
2008,07,24,01,09,9.70
2008,07,24,01,10,9.70
2008,07,24,01,11,9.80
2008,07,24,01,12,9.80
2008,07,24,01,13,9.80
2008,07,24,01,14,9.80
2008,07,24,01,15,9.70
2008,07,24,01,16,9.70
2008,07,24,01,17,9.70
2008,07,24,01,18,9.70
2008,07,24,01,19,9.70
2008,07,24,01,20,9.70
2008,07,24,01,21,9.70
2008,07,24,01,22,9.70
2008,07,24,01,23,9.60
2008,07,24,01,24,9.60
2008,07,24,01,25,9.60
2008,07,24,01,26,9.60
2008,07,24,01,27,9.60
2008,07,24,01,28,9.60
2008,07,24,01,29,9.60
2008,07,24,01,30,9.60
2008,07,24,01,31,9.50
2008,07,24,01,32,9.50
2008,07,24,01,33,9.50
2008,07,24,01,34,9.50
2008,07,24,01,35,9.50
2008,07,24,01,36,9.50
2008,07,24,01,37,9.50
2008,07,24,01,38,9.50
2008,07,24,01,39,9.50
2008,07,24,01,40,9.50
2008,07,24,01,41,9.50
2008,07,24,01,42,9.40
2008,07,24,01,43,9.40
2008,07,24,01,44,9.40
2008,07,24,01,45,9.40
2008,07,24,01,46,9.50
2008,07,24,01,47,9.50
2008,07,24,01,48,9.50
2008,07,24,01,49,9.40
2008,07,24,01,50,9.40
2008,07,24,01,51,9.40
2008,07,24,01,52,9.40
2008,07,24,01,53,9.40
2008,07,24,01,54,9.40
2008,07,24,01,55,9.40
2008,07,24,01,56,9.40
2008,07,24,01,57,9.30
2008,07,24,01,58,9.30
2008,07,24,01,59,9.30
2008,07,24,02,00,9.30
2008,07,24,02,01,9.30
2008,07,24,02,02,9.30
2008,07,24,02,03,9.20
2008,07,24,02,04,9.20
2008,07,24,02,05,9.20
2008,07,24,02,06,9.20
2008,07,24,02,07,9.20
2008,07,24,02,08,9.10
2008,07,24,02,09,9.10
2008,07,24,02,10,9.10
2008,07,24,02,11,9.10
2008,07,24,02,12,9.10
2008,07,24,02,13,9.10
2008,07,24,02,14,9.10
2008,07,24,02,15,9.10
2008,07,24,02,16,9.10
2008,07,24,02,17,9.10
2008,07,24,02,18,9.00
2008,07,24,02,19,9.00
2008,07,24,02,20,9.00
2008,07,24,02,21,9.00
2008,07,24,02,22,8.90
2008,07,24,02,23,8.90
2008,07,24,02,24,8.90
2008,07,24,02,25,8.90
2008,07,24,02,26,9.00
2008,07,24,02,27,9.00
2008,07,24,02,28,9.00
2008,07,24,02,29,9.00
2008,07,24,02,30,8.90
2008,07,24,02,31,8.90
2008,07,24,02,32,8.90
2008,07,24,02,33,8.90
2008,07,24,02,34,8.90
2008,07,24,02,35,8.90
2008,07,24,02,36,8.90
2008,07,24,02,37,8.90
2008,07,24,02,38,8.90
2008,07,24,02,39,8.90
2008,07,24,02,40,8.80
2008,07,24,02,41,8.80
2008,07,24,02,42,8.80
2008,07,24,02,43,8.80
2008,07,24,02,44,8.80
2008,07,24,02,45,8.80
2008,07,24,02,46,8.70
2008,07,24,02,47,8.70
2008,07,24,02,48,8.70
2008,07,24,02,49,8.70
2008,07,24,02,50,8.70
2008,07,24,02,51,8.70
2008,07,24,02,52,8.70
2008,07,24,02,53,8.70
2008,07,24,02,54,8.70
2008,07,24,02,55,8.70
2008,07,24,02,56,8.70
2008,07,24,02,57,8.60
2008,07,24,02,58,8.60
2008,07,24,02,59,8.60
2008,07,24,03,00,8.60
2008,07,24,03,01,8.60
2008,07,24,03,02,8.60
2008,07,24,03,03,8.60
2008,07,24,03,04,8.50
2008,07,24,03,05,8.50
2008,07,24,03,06,8.50
2008,07,24,03,07,8.50
2008,07,24,03,08,8.50
2008,07,24,03,09,8.50
2008,07,24,03,10,8.50
2008,07,24,03,11,8.40
2008,07,24,03,12,8.40
2008,07,24,03,13,8.40
2008,07,24,03,14,8.40
2008,07,24,03,15,8.40
2008,07,24,03,16,8.40
2008,07,24,03,17,8.50
2008,07,24,03,18,8.50
2008,07,24,03,19,8.50
2008,07,24,03,20,8.50
2008,07,24,03,21,8.50
2008,07,24,03,22,8.50
2008,07,24,03,23,8.50
2008,07,24,03,24,8.50
2008,07,24,03,25,8.50
2008,07,24,03,26,8.40
2008,07,24,03,27,8.40
2008,07,24,03,28,8.40
2008,07,24,03,29,8.40
2008,07,24,03,30,8.40
2008,07,24,03,31,8.40
2008,07,24,03,32,8.40
2008,07,24,03,33,8.40
2008,07,24,03,34,8.30
2008,07,24,03,35,8.30
2008,07,24,03,36,8.30
2008,07,24,03,37,8.30
2008,07,24,03,38,8.30
2008,07,24,03,39,8.20
2008,07,24,03,40,8.20
2008,07,24,03,41,8.20
2008,07,24,03,42,8.20
2008,07,24,03,43,8.20
2008,07,24,03,44,8.20
2008,07,24,03,45,8.20
2008,07,24,03,46,8.20
2008,07,24,03,47,8.10
2008,07,24,03,48,8.10
2008,07,24,03,49,8.10
2008,07,24,03,50,8.10
2008,07,24,03,51,8.10
2008,07,24,03,52,8.10
2008,07,24,03,53,8.10
2008,07,24,03,54,8.10
2008,07,24,03,55,8.10
2008,07,24,03,56,8.10
2008,07,24,03,57,8.10
2008,07,24,03,58,8.10
2008,07,24,03,59,8.10
2008,07,24,04,00,8.10
2008,07,24,04,01,8.10
2008,07,24,04,02,8.20
2008,07,24,04,03,8.20
2008,07,24,04,04,8.20
2008,07,24,04,05,8.20
2008,07,24,04,06,8.20
2008,07,24,04,07,8.20
2008,07,24,04,08,8.10
2008,07,24,04,09,8.10
2008,07,24,04,10,8.10
2008,07,24,04,11,8.10
2008,07,24,04,12,8.10
2008,07,24,04,13,8.10
2008,07,24,04,14,8.10
2008,07,24,04,15,8.00
2008,07,24,04,16,8.00
2008,07,24,04,17,8.00
2008,07,24,04,18,8.00
2008,07,24,04,19,7.90
2008,07,24,04,20,7.90
2008,07,24,04,21,7.90
2008,07,24,04,22,8.00
2008,07,24,04,23,8.00
2008,07,24,04,24,8.00
2008,07,24,04,25,8.00
2008,07,24,04,26,8.00
2008,07,24,04,27,8.00
2008,07,24,04,28,8.00
2008,07,24,04,29,8.00
2008,07,24,04,30,8.00
2008,07,24,04,31,7.90
2008,07,24,04,32,7.90
2008,07,24,04,33,8.00
2008,07,24,04,34,8.00
2008,07,24,04,35,8.00
2008,07,24,04,36,8.00
2008,07,24,04,37,8.00
2008,07,24,04,38,7.90
2008,07,24,04,39,7.90
2008,07,24,04,40,7.90
2008,07,24,04,41,7.90
2008,07,24,04,42,7.90
2008,07,24,04,43,7.90
2008,07,24,04,44,7.80
2008,07,24,04,45,7.80
2008,07,24,04,46,7.80
2008,07,24,04,47,7.80
2008,07,24,04,48,7.80
2008,07,24,04,49,7.80
2008,07,24,04,50,7.80
2008,07,24,04,51,7.80
2008,07,24,04,52,7.80
2008,07,24,04,53,7.80
2008,07,24,04,54,7.80
2008,07,24,04,55,7.80
2008,07,24,04,56,7.90
2008,07,24,04,57,7.80
2008,07,24,04,58,7.80
2008,07,24,04,59,7.80
2008,07,24,05,00,7.80
2008,07,24,05,01,7.80
2008,07,24,05,02,7.80
2008,07,24,05,03,7.80
2008,07,24,05,04,7.80
2008,07,24,05,05,7.80
2008,07,24,05,06,7.80
2008,07,24,05,07,7.90
2008,07,24,05,08,7.90
2008,07,24,05,09,7.90
2008,07,24,05,10,7.90
2008,07,24,05,11,7.90
2008,07,24,05,12,7.90
2008,07,24,05,13,7.90
2008,07,24,05,14,7.90
2008,07,24,05,15,7.90
2008,07,24,05,16,7.90
2008,07,24,05,17,7.90
2008,07,24,05,18,7.90
2008,07,24,05,19,7.80
2008,07,24,05,20,7.80
2008,07,24,05,21,7.80
2008,07,24,05,22,7.80
2008,07,24,05,23,7.80
2008,07,24,05,24,7.90
2008,07,24,05,25,7.90
2008,07,24,05,26,7.90
2008,07,24,05,27,7.90
2008,07,24,05,28,7.90
2008,07,24,05,29,7.90
2008,07,24,05,30,7.90
2008,07,24,05,31,7.90
2008,07,24,05,32,7.90
2008,07,24,05,33,7.80
2008,07,24,05,34,7.80
2008,07,24,05,35,7.80
2008,07,24,05,36,7.80
2008,07,24,05,37,7.80
2008,07,24,05,38,7.80
2008,07,24,05,39,7.80
2008,07,24,05,40,7.80
2008,07,24,05,41,7.80
2008,07,24,05,42,7.80
2008,07,24,05,43,7.80
2008,07,24,05,44,7.80
2008,07,24,05,45,7.80
2008,07,24,05,46,7.80
2008,07,24,05,47,7.90
2008,07,24,05,48,7.90
2008,07,24,05,49,7.90
2008,07,24,05,50,7.90
2008,07,24,05,51,7.80
2008,07,24,05,52,7.80
2008,07,24,05,53,7.80
2008,07,24,05,54,7.80
2008,07,24,05,55,7.80
2008,07,24,05,56,7.80
2008,07,24,05,57,7.80
2008,07,24,05,58,7.80
2008,07,24,05,59,7.80
2008,07,24,06,00,7.80
2008,07,24,06,01,7.80
2008,07,24,06,02,7.90
2008,07,24,06,03,7.90
2008,07,24,06,04,8.00
2008,07,24,06,05,8.00
2008,07,24,06,06,8.00
2008,07,24,06,07,8.10
2008,07,24,06,08,8.10
2008,07,24,06,09,8.10
2008,07,24,06,10,8.10
2008,07,24,06,11,8.10
2008,07,24,06,12,8.10
2008,07,24,06,13,8.00
2008,07,24,06,14,8.00
2008,07,24,06,15,8.00
2008,07,24,06,16,8.00
2008,07,24,06,17,8.00
2008,07,24,06,18,8.00
2008,07,24,06,19,8.00
2008,07,24,06,20,8.00
2008,07,24,06,21,8.00
2008,07,24,06,22,8.00
2008,07,24,06,23,8.10
2008,07,24,06,24,8.10
2008,07,24,06,25,8.10
2008,07,24,06,26,8.10
2008,07,24,06,27,8.20
2008,07,24,06,28,8.20
2008,07,24,06,29,8.30
2008,07,24,06,30,8.30
2008,07,24,06,31,8.30
2008,07,24,06,32,8.30
2008,07,24,06,33,8.30
2008,07,24,06,34,8.40
2008,07,24,06,35,8.40
2008,07,24,06,36,8.40
2008,07,24,06,37,8.50
2008,07,24,06,38,8.50
2008,07,24,06,39,8.50
2008,07,24,06,40,8.60
2008,07,24,06,41,8.60
2008,07,24,06,42,8.60
2008,07,24,06,43,8.60
2008,07,24,06,44,8.60
2008,07,24,06,45,8.60
2008,07,24,06,46,8.60
2008,07,24,06,47,8.60
2008,07,24,06,48,8.60
2008,07,24,06,49,8.70
2008,07,24,06,50,8.70
2008,07,24,06,51,8.70
2008,07,24,06,52,8.70
2008,07,24,06,53,8.70
2008,07,24,06,54,8.80
2008,07,24,06,55,8.80
2008,07,24,06,56,8.80
2008,07,24,06,57,8.90
2008,07,24,06,58,8.90
2008,07,24,06,59,8.90
2008,07,24,07,00,8.90
2008,07,24,07,01,9.00
2008,07,24,07,02,9.00
2008,07,24,07,03,9.00
2008,07,24,07,04,9.00
2008,07,24,07,05,8.90
2008,07,24,07,06,8.90
2008,07,24,07,07,8.90
2008,07,24,07,08,8.90
2008,07,24,07,09,8.90
2008,07,24,07,10,9.00
2008,07,24,07,11,9.00
2008,07,24,07,12,9.10
2008,07,24,07,13,9.10
2008,07,24,07,14,9.10
2008,07,24,07,15,9.10
2008,07,24,07,16,9.10
2008,07,24,07,17,9.20
2008,07,24,07,18,9.30
2008,07,24,07,19,9.40
2008,07,24,07,20,9.40
2008,07,24,07,21,9.50
2008,07,24,07,22,9.50
2008,07,24,07,23,9.50
2008,07,24,07,24,9.50
2008,07,24,07,25,9.50
2008,07,24,07,26,9.50
2008,07,24,07,27,9.50
2008,07,24,07,28,9.60
2008,07,24,07,29,9.60
2008,07,24,07,30,9.60
2008,07,24,07,31,9.60
2008,07,24,07,32,9.70
2008,07,24,07,33,9.70
2008,07,24,07,34,9.80
2008,07,24,07,35,9.90
2008,07,24,07,36,9.90
2008,07,24,07,37,10.00
2008,07,24,07,38,10.10
2008,07,24,07,39,10.10
2008,07,24,07,40,10.10
2008,07,24,07,41,10.20
2008,07,24,07,42,10.20
2008,07,24,07,43,10.20
2008,07,24,07,44,10.30
2008,07,24,07,45,10.30
2008,07,24,07,46,10.30
2008,07,24,07,47,10.40
2008,07,24,07,48,10.40
2008,07,24,07,49,10.50
2008,07,24,07,50,10.60
2008,07,24,07,51,10.60
2008,07,24,07,52,10.60
2008,07,24,07,53,10.70
2008,07,24,07,54,10.70
2008,07,24,07,55,10.70
2008,07,24,07,56,10.80
2008,07,24,07,57,10.80
2008,07,24,07,58,10.90
2008,07,24,07,59,11.00
2008,07,24,08,00,11.00
2008,07,24,08,01,11.10
2008,07,24,08,02,11.20
2008,07,24,08,03,11.20
2008,07,24,08,04,11.30
2008,07,24,08,05,11.30
2008,07,24,08,06,11.40
2008,07,24,08,07,11.50
2008,07,24,08,08,11.50
2008,07,24,08,09,11.60
2008,07,24,08,10,11.60
2008,07,24,08,11,11.70
2008,07,24,08,12,11.70
2008,07,24,08,13,11.70
2008,07,24,08,14,11.70
2008,07,24,08,15,11.80
2008,07,24,08,16,11.80
2008,07,24,08,17,11.80
2008,07,24,08,18,11.80
2008,07,24,08,19,11.90
2008,07,24,08,20,11.90
2008,07,24,08,21,11.90
2008,07,24,08,22,12.00
2008,07,24,08,23,12.10
2008,07,24,08,24,12.10
2008,07,24,08,25,12.20
2008,07,24,08,26,12.30
2008,07,24,08,27,12.30
2008,07,24,08,28,12.40
2008,07,24,08,29,12.50
2008,07,24,08,30,12.50
2008,07,24,08,31,12.60
2008,07,24,08,32,12.70
2008,07,24,08,33,12.80
2008,07,24,08,34,12.80
2008,07,24,08,35,12.90
2008,07,24,08,36,13.00
2008,07,24,08,37,13.00
2008,07,24,08,38,13.10
2008,07,24,08,39,13.20
2008,07,24,08,40,13.30
2008,07,24,08,41,13.40
2008,07,24,08,42,13.50
2008,07,24,08,43,13.50
2008,07,24,08,44,13.60
2008,07,24,08,45,13.70
2008,07,24,08,46,13.80
2008,07,24,08,47,13.80
2008,07,24,08,48,13.90
2008,07,24,08,49,14.00
2008,07,24,08,50,14.00
2008,07,24,08,51,14.10
2008,07,24,08,52,14.20
2008,07,24,08,53,14.20
2008,07,24,08,54,14.30
2008,07,24,08,55,14.40
2008,07,24,08,56,14.40
2008,07,24,08,57,14.50
2008,07,24,08,58,14.60
2008,07,24,08,59,14.60
2008,07,24,09,00,14.70
2008,07,24,09,01,14.70
2008,07,24,09,02,14.80
2008,07,24,09,03,14.80
2008,07,24,09,04,14.90
2008,07,24,09,05,15.00
2008,07,24,09,06,15.00
2008,07,24,09,07,15.00
2008,07,24,09,08,15.10
2008,07,24,09,09,15.20
2008,07,24,09,10,15.30
2008,07,24,09,11,15.40
2008,07,24,09,12,15.50
2008,07,24,09,13,15.50
2008,07,24,09,14,15.60
2008,07,24,09,15,15.50
2008,07,24,09,16,15.50
2008,07,24,09,17,15.50
2008,07,24,09,18,15.50
2008,07,24,09,19,15.60
2008,07,24,09,20,15.60
2008,07,24,09,21,15.70
2008,07,24,09,22,15.80
2008,07,24,09,23,15.90
2008,07,24,09,24,15.90
2008,07,24,09,25,15.90
2008,07,24,09,26,16.00
2008,07,24,09,27,16.00
2008,07,24,09,28,16.10
2008,07,24,09,29,16.10
2008,07,24,09,30,16.10
2008,07,24,09,31,16.10
2008,07,24,09,32,16.10
2008,07,24,09,33,16.20
2008,07,24,09,34,16.20
2008,07,24,09,35,16.20
2008,07,24,09,36,16.20
2008,07,24,09,37,16.20
2008,07,24,09,38,16.20
2008,07,24,09,39,16.30
2008,07,24,09,40,16.30
2008,07,24,09,41,16.40
2008,07,24,09,42,16.50
2008,07,24,09,43,16.60
2008,07,24,09,44,16.70
2008,07,24,09,45,16.70
2008,07,24,09,46,16.60
2008,07,24,09,47,16.60
2008,07,24,09,48,16.50
2008,07,24,09,49,16.50
2008,07,24,09,50,16.60
2008,07,24,09,51,16.70
2008,07,24,09,52,16.60
2008,07,24,09,53,16.40
2008,07,24,09,54,16.30
2008,07,24,09,55,16.20
2008,07,24,09,56,16.20
2008,07,24,09,57,16.30
2008,07,24,09,58,16.30
2008,07,24,09,59,16.40
2008,07,24,10,00,16.40
2008,07,24,10,01,16.50
2008,07,24,10,02,16.40
2008,07,24,10,03,16.40
2008,07,24,10,04,16.40
2008,07,24,10,05,16.40
2008,07,24,10,06,16.50
2008,07,24,10,07,16.50
2008,07,24,10,08,16.60
2008,07,24,10,09,16.70
2008,07,24,10,10,16.80
2008,07,24,10,11,16.90
2008,07,24,10,12,16.90
2008,07,24,10,13,16.90
2008,07,24,10,14,16.80
2008,07,24,10,15,16.70
2008,07,24,10,16,16.80
2008,07,24,10,17,16.60
2008,07,24,10,18,16.50
2008,07,24,10,19,16.40
2008,07,24,10,20,16.30
2008,07,24,10,21,16.30
2008,07,24,10,22,16.40
2008,07,24,10,23,16.50
2008,07,24,10,24,16.70
2008,07,24,10,25,16.70
2008,07,24,10,26,16.80
2008,07,24,10,27,16.90
2008,07,24,10,28,17.10
2008,07,24,10,29,17.20
2008,07,24,10,30,17.30
2008,07,24,10,31,17.30
2008,07,24,10,32,17.30
2008,07,24,10,33,17.30
2008,07,24,10,34,17.30
2008,07,24,10,35,17.40
2008,07,24,10,36,17.40
2008,07,24,10,37,17.40
2008,07,24,10,38,17.30
2008,07,24,10,39,17.20
2008,07,24,10,40,17.30
2008,07,24,10,41,17.40
2008,07,24,10,42,17.50
2008,07,24,10,43,17.50
2008,07,24,10,44,17.60
2008,07,24,10,45,17.60
2008,07,24,10,46,17.50
2008,07,24,10,47,17.40
2008,07,24,10,48,17.30
2008,07,24,10,49,17.30
2008,07,24,10,50,17.20
2008,07,24,10,51,17.20
2008,07,24,10,52,17.20
2008,07,24,10,53,17.20
2008,07,24,10,54,17.20
2008,07,24,10,55,17.30
2008,07,24,10,56,17.50
2008,07,24,10,57,17.70
2008,07,24,10,58,17.80
2008,07,24,10,59,17.90
2008,07,24,11,00,18.10
2008,07,24,11,01,18.20
2008,07,24,11,02,18.30
2008,07,24,11,03,18.40
2008,07,24,11,04,18.40
2008,07,24,11,05,18.30
2008,07,24,11,06,18.30
2008,07,24,11,07,18.20
2008,07,24,11,08,18.20
2008,07,24,11,09,18.20
2008,07,24,11,10,18.20
2008,07,24,11,11,18.20
2008,07,24,11,12,18.20
2008,07,24,11,13,18.20
2008,07,24,11,14,18.10
2008,07,24,11,15,18.10
2008,07,24,11,16,18.00
2008,07,24,11,17,18.00
2008,07,24,11,18,18.00
2008,07,24,11,19,18.00
2008,07,24,11,20,18.10
2008,07,24,11,21,18.10
2008,07,24,11,22,18.10
2008,07,24,11,23,18.10
2008,07,24,11,24,18.10
2008,07,24,11,25,18.10
2008,07,24,11,26,18.50
2008,07,24,11,27,18.50
2008,07,24,11,28,18.40
2008,07,24,11,29,18.30
2008,07,24,11,30,18.10
2008,07,24,11,31,18.10
2008,07,24,11,32,18.10
2008,07,24,11,33,18.10
2008,07,24,11,34,18.10
2008,07,24,11,35,18.10
2008,07,24,11,36,18.20
2008,07,24,11,37,18.30
2008,07,24,11,38,18.40
2008,07,24,11,39,18.40
2008,07,24,11,40,18.40
2008,07,24,11,41,18.50
2008,07,24,11,42,18.60
2008,07,24,11,43,18.70
2008,07,24,11,44,18.80
2008,07,24,11,45,18.70
2008,07,24,11,46,18.70
2008,07,24,11,47,18.70
2008,07,24,11,48,18.60
2008,07,24,11,49,18.40
2008,07,24,11,50,18.40
2008,07,24,11,51,18.40
2008,07,24,11,52,18.40
2008,07,24,11,53,18.40
2008,07,24,11,54,18.50
2008,07,24,11,55,18.50
2008,07,24,11,56,18.60
2008,07,24,11,57,18.60
2008,07,24,11,58,18.70
2008,07,24,11,59,18.80
2008,07,24,12,00,18.90
2008,07,24,12,01,18.90
2008,07,24,12,02,19.00
2008,07,24,12,03,19.10
2008,07,24,12,04,19.00
2008,07,24,12,05,18.90
2008,07,24,12,06,18.80
2008,07,24,12,07,18.70
2008,07,24,12,08,18.60
2008,07,24,12,09,18.50
2008,07,24,12,10,18.60
2008,07,24,12,11,18.60
2008,07,24,12,12,18.60
2008,07,24,12,13,18.70
2008,07,24,12,14,18.90
2008,07,24,12,15,19.00
2008,07,24,12,16,19.10
2008,07,24,12,17,19.00
2008,07,24,12,18,18.90
2008,07,24,12,19,18.80
2008,07,24,12,20,18.70
2008,07,24,12,21,18.60
2008,07,24,12,22,18.60
2008,07,24,12,23,18.70
2008,07,24,12,24,18.80
2008,07,24,12,25,18.90
2008,07,24,12,26,19.00
2008,07,24,12,27,19.10
2008,07,24,12,28,19.20
2008,07,24,12,29,19.30
2008,07,24,12,30,19.30
2008,07,24,12,31,19.20
2008,07,24,12,32,19.20
2008,07,24,12,33,19.20
2008,07,24,12,34,19.10
2008,07,24,12,35,18.90
2008,07,24,12,36,18.80
2008,07,24,12,37,18.70
2008,07,24,12,38,18.70
2008,07,24,12,39,18.70
2008,07,24,12,40,18.70
2008,07,24,12,41,18.80
2008,07,24,12,42,18.90
2008,07,24,12,43,19.00
2008,07,24,12,44,19.10
2008,07,24,12,45,19.20
2008,07,24,12,46,19.30
2008,07,24,12,47,19.40
2008,07,24,12,48,19.50
2008,07,24,12,49,19.70
2008,07,24,12,50,19.70
2008,07,24,12,51,19.50
2008,07,24,12,52,19.30
2008,07,24,12,53,19.20
2008,07,24,12,54,19.10
2008,07,24,12,55,19.10
2008,07,24,12,56,19.10
2008,07,24,12,57,19.10
2008,07,24,12,58,19.10
2008,07,24,12,59,19.00
2008,07,24,13,00,18.90
2008,07,24,13,01,18.90
2008,07,24,13,02,18.80
2008,07,24,13,03,18.70
2008,07,24,13,04,18.60
2008,07,24,13,05,18.60
2008,07,24,13,06,18.70
2008,07,24,13,07,18.70
2008,07,24,13,08,18.70
2008,07,24,13,09,18.80
2008,07,24,13,10,19.00
2008,07,24,13,11,19.10
2008,07,24,13,12,19.30
2008,07,24,13,13,19.40
2008,07,24,13,14,19.60
2008,07,24,13,15,19.70
2008,07,24,13,16,19.80
2008,07,24,13,17,19.90
2008,07,24,13,18,20.00
2008,07,24,13,19,20.10
2008,07,24,13,20,20.00
2008,07,24,13,21,20.00
2008,07,24,13,22,19.90
2008,07,24,13,23,19.80
2008,07,24,13,24,19.80
2008,07,24,13,25,19.70
2008,07,24,13,26,19.70
2008,07,24,13,27,19.60
2008,07,24,13,28,19.50
2008,07,24,13,29,19.40
2008,07,24,13,30,19.30
2008,07,24,13,31,19.30
2008,07,24,13,32,19.30
2008,07,24,13,33,19.30
2008,07,24,13,34,19.40
2008,07,24,13,35,19.60
2008,07,24,13,36,19.70
2008,07,24,13,37,19.80
2008,07,24,13,38,19.80
2008,07,24,13,39,19.70
2008,07,24,13,40,19.70
2008,07,24,13,41,19.80
2008,07,24,13,42,20.00
2008,07,24,13,43,20.10
2008,07,24,13,44,20.20
2008,07,24,13,45,20.30
2008,07,24,13,46,20.50
2008,07,24,13,47,20.70
2008,07,24,13,48,20.80
2008,07,24,13,49,21.00
2008,07,24,13,50,21.10
2008,07,24,13,51,21.20
2008,07,24,13,52,21.30
2008,07,24,13,53,21.30
2008,07,24,13,54,21.30
2008,07,24,13,55,21.30
2008,07,24,13,56,21.20
2008,07,24,13,57,21.10
2008,07,24,13,58,21.20
2008,07,24,13,59,21.20
2008,07,24,14,00,21.30
2008,07,24,14,01,21.30
2008,07,24,14,02,21.40
2008,07,24,14,03,21.50
2008,07,24,14,04,21.50
2008,07,24,14,05,21.40
2008,07,24,14,06,21.40
2008,07,24,14,07,21.60
2008,07,24,14,08,21.60
2008,07,24,14,09,21.60
2008,07,24,14,10,21.60
2008,07,24,14,11,21.50
2008,07,24,14,12,21.40
2008,07,24,14,13,21.30
2008,07,24,14,14,21.30
2008,07,24,14,15,21.20
2008,07,24,14,16,21.10
2008,07,24,14,17,21.10
2008,07,24,14,18,21.10
2008,07,24,14,19,21.10
2008,07,24,14,20,21.10
2008,07,24,14,21,21.10
2008,07,24,14,22,21.10
2008,07,24,14,23,21.20
2008,07,24,14,24,21.30
2008,07,24,14,25,21.30
2008,07,24,14,26,21.20
2008,07,24,14,27,21.20
2008,07,24,14,28,21.20
2008,07,24,14,29,21.20
2008,07,24,14,30,21.20
2008,07,24,14,31,21.20
2008,07,24,14,32,21.30
2008,07,24,14,33,21.40
2008,07,24,14,34,21.40
2008,07,24,14,35,21.40
2008,07,24,14,36,21.40
2008,07,24,14,37,21.40
2008,07,24,14,38,21.50
2008,07,24,14,39,21.60
2008,07,24,14,40,21.60
2008,07,24,14,41,21.70
2008,07,24,14,42,21.80
2008,07,24,14,43,21.90
2008,07,24,14,44,21.80
2008,07,24,14,45,21.80
2008,07,24,14,46,21.80
2008,07,24,14,47,21.80
2008,07,24,14,48,21.80
2008,07,24,14,49,21.80
2008,07,24,14,50,21.80
2008,07,24,14,51,21.90
2008,07,24,14,52,22.00
2008,07,24,14,53,22.10
2008,07,24,14,54,22.20
2008,07,24,14,55,22.30
2008,07,24,14,56,22.40
2008,07,24,14,57,22.30
2008,07,24,14,58,22.40
2008,07,24,14,59,22.30
2008,07,24,15,00,22.10
2008,07,24,15,01,21.90
2008,07,24,15,02,21.80
2008,07,24,15,03,21.70
2008,07,24,15,04,21.60
2008,07,24,15,05,21.60
2008,07,24,15,06,21.70
2008,07,24,15,07,21.80
2008,07,24,15,08,21.80
2008,07,24,15,09,21.90
2008,07,24,15,10,21.90
2008,07,24,15,11,21.90
2008,07,24,15,12,21.80
2008,07,24,15,13,21.90
2008,07,24,15,14,21.90
2008,07,24,15,15,21.90
2008,07,24,15,16,22.00
2008,07,24,15,17,22.10
2008,07,24,15,18,22.10
2008,07,24,15,19,22.00
2008,07,24,15,20,21.90
2008,07,24,15,21,21.70
2008,07,24,15,22,21.40
2008,07,24,15,23,21.20
2008,07,24,15,24,21.10
2008,07,24,15,25,21.00
2008,07,24,15,26,20.90
2008,07,24,15,27,20.80
2008,07,24,15,28,20.80
2008,07,24,15,29,21.00
2008,07,24,15,30,21.10
2008,07,24,15,31,21.20
2008,07,24,15,32,21.20
2008,07,24,15,33,21.30
2008,07,24,15,34,21.30
2008,07,24,15,35,21.20
2008,07,24,15,36,21.10
2008,07,24,15,37,21.00
2008,07,24,15,38,21.00
2008,07,24,15,39,21.00
2008,07,24,15,40,20.90
2008,07,24,15,41,21.00
2008,07,24,15,42,21.10
2008,07,24,15,43,21.20
2008,07,24,15,44,21.30
2008,07,24,15,45,21.40
2008,07,24,15,46,21.60
2008,07,24,15,47,21.50
2008,07,24,15,48,21.40
2008,07,24,15,49,21.10
2008,07,24,15,50,20.90
2008,07,24,15,51,20.90
2008,07,24,15,52,20.80
2008,07,24,15,53,20.90
2008,07,24,15,54,20.90
2008,07,24,15,55,20.90
2008,07,24,15,56,20.90
2008,07,24,15,57,20.90
2008,07,24,15,58,21.00
2008,07,24,15,59,21.10
2008,07,24,16,00,21.30
2008,07,24,16,01,21.50
2008,07,24,16,02,21.70
2008,07,24,16,03,21.90
2008,07,24,16,04,22.00
2008,07,24,16,05,22.10
2008,07,24,16,06,22.10
2008,07,24,16,07,22.10
2008,07,24,16,08,22.20
2008,07,24,16,09,22.20
2008,07,24,16,10,22.20
2008,07,24,16,11,22.20
2008,07,24,16,12,22.20
2008,07,24,16,13,22.30
2008,07,24,16,14,22.20
2008,07,24,16,15,22.20
2008,07,24,16,16,22.20
2008,07,24,16,17,22.10
2008,07,24,16,18,21.90
2008,07,24,16,19,21.80
2008,07,24,16,20,21.70
2008,07,24,16,21,21.70
2008,07,24,16,22,21.70
2008,07,24,16,23,21.70
2008,07,24,16,24,21.70
2008,07,24,16,25,21.70
2008,07,24,16,26,21.70
2008,07,24,16,27,21.50
2008,07,24,16,28,21.50
2008,07,24,16,29,21.50
2008,07,24,16,30,21.50
2008,07,24,16,31,21.60
2008,07,24,16,32,21.50
2008,07,24,16,33,21.50
2008,07,24,16,34,21.40
2008,07,24,16,35,21.40
2008,07,24,16,36,21.40
2008,07,24,16,37,21.40
2008,07,24,16,38,21.40
2008,07,24,16,39,21.40
2008,07,24,16,40,21.50
2008,07,24,16,41,21.40
2008,07,24,16,42,21.40
2008,07,24,16,43,21.30
2008,07,24,16,44,21.30
2008,07,24,16,45,21.30
2008,07,24,16,46,21.30
2008,07,24,16,47,21.30
2008,07,24,16,48,21.30
2008,07,24,16,49,21.30
2008,07,24,16,50,21.20
2008,07,24,16,51,21.20
2008,07,24,16,52,21.20
2008,07,24,16,53,21.30
2008,07,24,16,54,21.40
2008,07,24,16,55,21.40
2008,07,24,16,56,21.50
2008,07,24,16,57,21.60
2008,07,24,16,58,21.70
2008,07,24,16,59,21.80
2008,07,24,17,00,21.80
2008,07,24,17,01,21.80
2008,07,24,17,02,21.80
2008,07,24,17,03,21.80
2008,07,24,17,04,21.80
2008,07,24,17,05,21.80
2008,07,24,17,06,21.80
2008,07,24,17,07,21.80
2008,07,24,17,08,21.70
2008,07,24,17,09,21.70
2008,07,24,17,10,21.70
2008,07,24,17,11,21.70
2008,07,24,17,12,21.70
2008,07,24,17,13,21.60
2008,07,24,17,14,21.40
2008,07,24,17,15,21.30
2008,07,24,17,16,21.30
2008,07,24,17,17,21.30
2008,07,24,17,18,21.20
2008,07,24,17,19,21.20
2008,07,24,17,20,21.10
2008,07,24,17,21,21.10
2008,07,24,17,22,21.10
2008,07,24,17,23,21.10
2008,07,24,17,24,21.20
2008,07,24,17,25,21.20
2008,07,24,17,26,21.20
2008,07,24,17,27,21.30
2008,07,24,17,28,21.30
2008,07,24,17,29,21.30
2008,07,24,17,30,21.30
2008,07,24,17,31,21.20
2008,07,24,17,32,21.10
2008,07,24,17,33,21.00
2008,07,24,17,34,21.00
2008,07,24,17,35,21.00
2008,07,24,17,36,21.00
2008,07,24,17,37,21.10